Regional Weather Roundup
Issued by NWS

Home | Current Version | Previous Version | Graphics & Text | Print | Product List | Glossary On
Versions: 1 2 3 4 5 6 7 8 9 10 11 12 13 14 15 16 17 18 19 20 21 22 23 24 25 26 27 28 29 30 31 32 33 34 35 36 37 38 39 40 41 42 43 44 45 46 47 48 49 50
000
ASUS43 KMKX 220810
RWRWI

WISCONSIN REGIONAL WEATHER ROUNDUP
NATIONAL WEATHER SERVICE MILWAUKEE/SULLIVAN WI
300 AM CDT SUN APR 22 2018

NOTE: "FAIR" INDICATES FEW OR NO CLOUDS BELOW 12,000 FEET WITH NO
SIGNIFICANT WEATHER AND/OR OBSTRUCTIONS TO VISIBILITY.

WIZ001-002-006>008-014>016-023>028-220900-
NORTHWEST WISCONSIN

CITY           SKY/WX    TMP DP  RH WIND       PRES   REMARKS
SUPERIOR ARPT  FAIR      27  25  92 CALM      30.33F
ASHLAND        FAIR      25  22  88 CALM      30.34F
HAYWARD        FAIR      27  21  78 CALM      30.34F
SIREN          FAIR      28  19  70 CALM      30.34F
CUMBERLAND     FAIR      28  19  69 CALM      30.34S
RICE LAKE      FAIR      29  26  89 CALM      30.36S
CHETEK         FAIR      28  25  88 CALM      30.35S
LADYSMITH      FAIR      30  25  80 CALM      30.36S
EAU CLAIRE     FAIR      34  30  85 CALM      30.34S
MENOMONIE      FAIR      34  30  86 N5        30.35F WCI  30
NEW RICHMOND   FAIR      32  28  86 CALM      30.34F
OSCEOLA        FAIR      31  26  80 CALM      30.37S
$$

WIZ003>005-009-010-017-018-220900-
NORTH CENTRAL WISCONSIN

CITY           SKY/WX    TMP DP  RH WIND       PRES   REMARKS
MANITOWISH WTR FAIR      24  21  87 CALM      30.34S
ARBOR VITAE    FAIR      27  20  73 CALM      30.34S
WOODRUFF       FAIR      27  20  73 CALM      30.34S
RHINELANDER    FAIR      28  23  81 W5        30.34F WCI  23
EAGLE RIVER    FAIR      26  19  73 CALM      30.33F
LAND O LAKES   FAIR      24  19  83 CALM      30.36S
PHILLIPS       FAIR      26  22  85 CALM      30.34F
TOMAHAWK       FAIR      25  22  87 CALM      30.36S
MEDFORD        FAIR      28  25  87 CALM      30.34S
MERRILL          N/A     26  24  90 CALM      30.36F
$$

WIZ029-030-035-036-043>047-220900-
CENTRAL WISCONSIN

CITY           SKY/WX    TMP DP  RH WIND       PRES   REMARKS
WAUSAU         FAIR      30  25  81 CALM      30.33F
MOSINEE        FAIR      32  27  80 CALM      30.36S
MARSHFIELD     FAIR      35  27  72 CALM      30.33F
STEVENS POINT  FAIR      27  25  91 CALM      30.36F
WAUPACA        FAIR      32  29  88 CALM      30.37S
WAUTOMA        FAIR      27  25  92 CALM      30.36F
WISC RAPIDS    FAIR      30  23  75 CALM      30.36S
CAMP DOUGLAS   FAIR      29  29  98 CALM      30.34F
$$

WIZ011>013-019>022-031-037>040-048>050-220900-
NORTHEAST WISCONSIN

CITY           SKY/WX    TMP DP  RH WIND       PRES   REMARKS
ANTIGO         FAIR      29  27  94 CALM      30.36S
SHAWANO        FAIR      32  28  82 CALM      30.36S
OCONTO         FAIR      28  23  79 CALM      30.37S
STURGEON BAY   FAIR      33  23  66 CALM      30.38S
GREEN BAY      FAIR      32  27  81 CALM      30.37S
MANITOWOC      FAIR      31  26  82 CALM      30.38S
APPLETON       FAIR      37  28  70 CALM      30.35S
CLINTONVILLE   FAIR      29  24  81 CALM      30.36S
OSHKOSH        FAIR      35  30  82 CALM      30.35F
$$

WIZ032>034-041-042-053>061-220900-
SOUTHWEST WISCONSIN

CITY           SKY/WX    TMP DP  RH WIND       PRES   REMARKS
LA CROSSE      FAIR      37  31  78 CALM      30.34F
SPARTA         FAIR      28  26  93 CALM      30.35F
VIROQUA        FAIR      41  32  69 E5        30.32F
BOSCOBEL       CLOUDY    38  34  85 CALM      30.34S
PRAIRIE DU CHI CLOUDY    41  33  75 CALM      30.34S
PLATTEVILLE    FAIR      44  34  69 E3        30.33R
$$

WIZ056-057-062-063-064-067-068-220900-
SOUTH CENTRAL WISCONSIN

CITY           SKY/WX    TMP DP  RH WIND       PRES   REMARKS
REEDSBURG      MOCLDY    34  32  93 CALM      30.33F
BARABOO/DELLS  MOCLDY    32  29  86 CALM      30.33F
LONE ROCK      FAIR      35  33  92 CALM      30.33F
MINERAL POINT  CLOUDY    45  32  61 E6        30.31F
MADISON        FAIR      32  30  92 CALM      30.34F
MIDDLETON      FAIR      34  32  94 CALM      30.33F
WATERTOWN      FAIR      31  30  97 CALM      30.35S
MONROE         CLOUDY    43  28  56 E6        30.30F
JANESVILLE     MOCLDY    37  28  70 NE5       30.33F WCI  34
$$

WIZ051-052-058>065-066-070>072-220900-
SOUTHEAST WISCONSIN

CITY           SKY/WX    TMP DP  RH WIND       PRES   REMARKS
MILWAUKEE      MOCLDY    38  25  59 CALM      30.36F
WAUKESHA       FAIR      32  27  80 CALM      30.36F
MILWAUKEE/TIMM FAIR      34  23  64 CALM      30.37S
RACINE         CLOUDY    38  25  59 CALM      30.37F
BURLINGTON     FAIR      32  28  84 CALM      30.34F
KENOSHA        CLOUDY    36  27  69 NE7       30.35F WCI  30
FOND DU LAC    FAIR      31  27  85 CALM      30.36F
SHEBOYGAN      FAIR      32  28  85 NW3       30.36F
WEST BEND      FAIR      30  28  93 CALM      30.36F
JUNEAU         FAIR      35  29  80 CALM      30.36F
$$

LSZ147-162-220900-
LAKE SUPERIOR

STATION/POSITION TIME  TEMP    WIND        PRES    WAVE
                       AIR SEA DIR/SP/G            HT/PER
                 (UTC) (F)     (DEG/KT/KT) (MB)    (FT/S)
DEVILS ISLAND    0800   37      50/  7/  8 1028.3F
SAXON HARBOR     0740   29     190/  3/  4 1026.8S
$$

LMZ867-665-643>646-220900-
LAKE MICHIGAN

STATION/POSITION TIME  TEMP    WIND        PRES    WAVE
                       AIR SEA DIR/SP/G            HT/PER
                 (UTC) (F)     (DEG/KT/KT) (MB)    (FT/S)
NORTHPORT PIER   0740   37                 1028.4S
KEWAUNEE LAKESHO 0748   34      CALM  /  2 1027.8S
SHEBOYGAN LAKESH 0800   40      CALM  /  1 1028.6F
PORT WASHINGTON  0730   34     270/  3/  4 1029.1F
MILWAUKEE LAKESH 0750   37     320/  1/  1   N/A
KENOSHA   LAKESH 0800   39                 1028.1
$$

TC  - TEMPERATURE IN CELSIUS
VSB - VISIBILITY IN STATUTE MILES
WCI - WIND CHILL INDEX
HX  - HEAT INDEX





USA.gov is the U.S. government's official web portal to all federal, state and local government web resources and services.